Погода в Кандолиме

Индия     15°30′46″N   73°46′04″E
темп.,
°C
ветер,
м/с
пор.,
м/с
влажн.,
%
обл.,
%
осадки,
мм/ч
давл.,
гПа
погр.,
м
6 марта, сб
сб623:30+26с34820 0.0 1014287
02:30+24всв22880 0.0 1012125
05:30+24в22880 0.0 1012112
08:30+25в33782 0.0 1015160
11:30+28юз32741 0.0 1015422
14:30+28з66771 0.0 1011367
17:30+28зсз67741 0.0 1010613
20:30+27сз56760 0.0 1012495
7 марта, вс
вс723:30+26с34770 0.0 1013456
02:30+24св22810 0.0 1011158
05:30+23всв22840 0.0 1010130
08:30+25св22760 0.0 1013216
11:30+27з43640 0.0 1013370
14:30+28зсз67640 0.0 1009366
17:30+29сз710620 0.0 1008543
20:30+28ссз711650 0.0 1010438
8 марта, пн
пн823:30+27с69580 0.0 1011352
02:30+25с57550 0.0 1009279
05:30+25ссв46540 0.0 1009280
08:30+25вюв23550 0.0 1013199
11:30+29юз33500 0.0 1012318
14:30+29з56480 0.0 1009264
17:30+29сз78600 0.0 1007400
20:30+28ссз58690 0.0 1010318
9 марта, вт
вт923:30+27с57610 0.0 1011298
02:30+25св34570 0.0 1010216
05:30+24в22590 0.0 101092
08:30+27юв23590 0.0 1013348
11:30+29юз44570 0.0 1013469
14:30+29з56630 0.0 1010377
17:30+28сз67710 0.0 1009491
20:30+27ссз57750 0.0 1011357
10 марта, ср
ср1023:30+26с45740 0.0 1012282
02:30+24ссв22750 0.0 1010159
05:30+24всв22790 0.0 1010110
08:30+25в117320 0.0 1013199
11:30+27з336410 0.0 1013298
14:30+28зсз67630 0.0 1008337
17:30+29сз78660 0.0 1008430
20:30+28ссз68740 0.0 1010340